�������l�o���
Date,Time,MP-1(��Sv/h),MP-2(��Sv/h),MP-3(��Sv/h),MP-4(��Sv/h),MP-5(��Sv/h),MP-6(��Sv/h),MP-7(��Sv/h),����,����(m/s),���J
2022/07/16,00:00,0.146,0.136,0.213,0.207,0.213,0.116,0.076,�k��,1.9,�L
2022/07/16,00:10,0.146,0.137,0.214,0.206,0.211,0.116,0.075,�k��,1.9,�L
2022/07/16,00:20,0.144,0.139,0.211,0.206,0.209,0.117,0.077,�k��,2.0,�L
2022/07/16,00:30,0.148,0.137,0.214,0.209,0.213,0.117,0.078,�k��,3.1,�L
2022/07/16,00:40,0.147,0.139,0.214,0.206,0.212,0.118,0.078,�k�k��,4.3,�L
2022/07/16,00:50,0.147,0.140,0.213,0.208,0.212,0.119,0.079,�쐼,3.6,�L
2022/07/16,01:00,0.149,0.140,0.216,0.210,0.214,0.119,0.080,���쐼,3.5,�L
2022/07/16,01:10,0.149,0.142,0.216,0.207,0.213,0.120,0.081,�k,3.0,�L
2022/07/16,01:20,0.147,0.141,0.215,0.209,0.214,0.120,0.082,��,6.3,�L
2022/07/16,01:30,0.150,0.141,0.215,0.209,0.216,0.121,0.082,��,2.3,�L
2022/07/16,01:40,0.149,0.142,0.215,0.207,0.213,0.122,0.082,���쐼,0.7,�L
2022/07/16,01:50,0.149,0.141,0.217,0.211,0.216,0.120,0.082,-,CALM,�L
2022/07/16,02:00,0.148,0.141,0.216,0.209,0.215,0.119,0.080,���k��,0.6,�L
2022/07/16,02:10,0.147,0.141,0.215,0.208,0.212,0.119,0.080,�k�k��,2.3,�L
2022/07/16,02:20,0.147,0.140,0.215,0.209,0.216,0.119,0.078,�k�k��,3.4,��
2022/07/16,02:30,0.147,0.140,0.213,0.206,0.212,0.117,0.078,�k��,5.1,��
2022/07/16,02:40,0.145,0.138,0.214,0.207,0.211,0.117,0.078,�k��,4.6,��
2022/07/16,02:50,0.147,0.138,0.213,0.208,0.214,0.116,0.078,���k��,5.4,��
2022/07/16,03:00,0.145,0.138,0.211,0.206,0.210,0.115,0.077,�k��,6.0,��
2022/07/16,03:10,0.144,0.137,0.214,0.206,0.211,0.115,0.076,�k��,6.2,��
2022/07/16,03:20,0.147,0.137,0.212,0.206,0.211,0.115,0.075,�k��,7.1,��
2022/07/16,03:30,0.145,0.136,0.213,0.204,0.209,0.113,0.076,�k��,7.8,��
2022/07/16,03:40,0.144,0.136,0.212,0.206,0.211,0.115,0.075,�k�k��,8.4,��
2022/07/16,03:50,0.144,0.137,0.211,0.205,0.211,0.114,0.074,�k�k��,8.7,��
2022/07/16,04:00,0.143,0.135,0.213,0.205,0.208,0.114,0.075,�k��,7.4,��
2022/07/16,04:10,0.144,0.136,0.212,0.205,0.212,0.115,0.075,�k��,8.6,��
2022/07/16,04:20,0.144,0.136,0.211,0.203,0.209,0.114,0.075,�k��,7.1,��
2022/07/16,04:30,0.144,0.135,0.213,0.206,0.210,0.114,0.075,�k��,6.5,��
2022/07/16,04:40,0.146,0.136,0.211,0.205,0.211,0.115,0.075,�k��,6.0,��
2022/07/16,04:50,0.145,0.135,0.212,0.204,0.209,0.114,0.075,�k��,6.8,��
2022/07/16,05:00,0.144,0.136,0.212,0.206,0.210,0.114,0.075,�k��,6.9,��
2022/07/16,05:10,0.146,0.135,0.211,0.204,0.210,0.114,0.074,�k��,7.1,��
2022/07/16,05:20,0.144,0.134,0.212,0.206,0.208,0.113,0.075,�k��,7.9,��
2022/07/16,05:30,0.145,0.135,0.210,0.205,0.211,0.113,0.074,���k��,4.9,��
2022/07/16,05:40,0.145,0.136,0.213,0.204,0.209,0.114,0.075,���k��,3.9,��
2022/07/16,05:50,0.143,0.136,0.212,0.206,0.208,0.113,0.075,��,2.4,��
2022/07/16,06:00,0.145,0.135,0.211,0.204,0.211,0.114,0.074,��,2.0,��
2022/07/16,06:10,0.144,0.135,0.212,0.205,0.210,0.113,0.075,�쐼,1.7,��
2022/07/16,06:20,0.144,0.136,0.212,0.206,0.208,0.114,0.075,�쐼,2.5,��
2022/07/16,06:30,0.146,0.136,0.212,0.203,0.211,0.115,0.075,���쐼,1.5,��
2022/07/16,06:40,0.145,0.135,0.212,0.206,0.209,0.114,0.074,���쐼,2.1,��
2022/07/16,06:50,0.145,0.136,0.212,0.206,0.208,0.113,0.075,��,1.9,��
2022/07/16,07:00,0.145,0.136,0.210,0.204,0.210,0.114,0.074,���k��,1.8,��
2022/07/16,07:10,0.144,0.134,0.213,0.206,0.211,0.114,0.075,�k�k��,2.1,��
2022/07/16,07:20,0.143,0.136,0.211,0.206,0.208,0.114,0.075,�k��,1.8,��
2022/07/16,07:30,0.145,0.135,0.211,0.204,0.208,0.113,0.074,�k�k��,1.6,��
2022/07/16,07:40,0.145,0.135,0.213,0.204,0.212,0.114,0.074,�k�k��,1.2,��
2022/07/16,07:50,0.143,0.136,0.212,0.206,0.210,0.115,0.075,�k�k��,0.7,��
2022/07/16,08:00,0.145,0.136,0.210,0.206,0.207,0.112,0.075,-,CALM,��
2022/07/16,08:10,0.146,0.136,0.213,0.204,0.209,0.114,0.074,�쓌,0.7,��
2022/07/16,08:20,0.144,0.135,0.213,0.205,0.211,0.114,0.074,��쓌,1.1,��
2022/07/16,08:30,0.143,0.136,0.213,0.207,0.211,0.114,0.075,��쓌,1.1,��
2022/07/16,08:40,0.145,0.136,0.211,0.206,0.209,0.114,0.075,�쓌,1.1,��
2022/07/16,08:50,0.146,0.136,0.213,0.206,0.209,0.114,0.076,��쓌,1.9,��
2022/07/16,09:00,0.145,0.135,0.214,0.204,0.211,0.115,0.075,��쓌,2.0,��
2022/07/16,09:10,0.144,0.136,0.212,0.207,0.212,0.114,0.075,�쓌,2.6,��
2022/07/16,09:20,0.146,0.137,0.212,0.206,0.209,0.114,0.076,��쓌,2.6,��
2022/07/16,09:30,0.145,0.136,0.212,0.205,0.209,0.116,0.075,��,3.2,��
2022/07/16,09:40,0.145,0.136,0.216,0.206,0.210,0.115,0.075,��쓌,4.4,��
2022/07/16,09:50,0.145,0.137,0.214,0.207,0.212,0.115,0.075,��,3.7,�L
2022/07/16,10:00,0.147,0.136,0.211,0.207,0.210,0.115,0.075,��,2.9,��
2022/07/16,10:10,0.145,0.137,0.212,0.205,0.210,0.116,0.075,��,3.3,�L
2022/07/16,10:20,0.146,0.136,0.215,0.205,0.209,0.115,0.075,��,2.9,�L
2022/07/16,10:30,0.144,0.136,0.213,0.208,0.211,0.115,0.076,��,2.4,��
2022/07/16,10:40,0.146,0.137,0.213,0.207,0.212,0.114,0.075,��쓌,2.8,��
2022/07/16,10:50,0.145,0.136,0.211,0.206,0.210,0.115,0.075,��,2.3,��
2022/07/16,11:00,0.146,0.137,0.212,0.204,0.208,0.115,0.074,��,2.8,��
2022/07/16,11:10,0.145,0.135,0.215,0.205,0.208,0.114,0.074,��,2.2,��
2022/07/16,11:20,0.144,0.135,0.214,0.207,0.209,0.114,0.076,��,2.0,��
2022/07/16,11:30,0.146,0.136,0.214,0.208,0.211,0.115,0.075,��쓌,0.7,��
2022/07/16,11:40,0.146,0.137,0.211,0.206,0.213,0.116,0.075,��쓌,3.2,�L
2022/07/16,11:50,0.146,0.138,0.213,0.205,0.210,0.115,0.074,��쓌,3.5,�L
2022/07/16,12:00,0.145,0.137,0.215,0.205,0.210,0.115,0.075,��쓌,3.8,��
2022/07/16,12:10,0.145,0.137,0.216,0.209,0.210,0.115,0.075,��쓌,4.3,�L
2022/07/16,12:20,0.147,0.136,0.214,0.209,0.209,0.117,0.075,��쓌,4.9,�L
2022/07/16,12:30,0.148,0.138,0.214,0.207,0.213,0.116,0.075,��쓌,5.3,�L
2022/07/16,12:40,0.145,0.137,0.212,0.206,0.212,0.115,0.075,��쓌,5.5,��
2022/07/16,12:50,0.145,0.137,0.215,0.207,0.210,0.116,0.075,��,4.8,��
2022/07/16,13:00,0.146,0.135,0.216,0.210,0.210,0.116,0.075,��,5.3,��
2022/07/16,13:10,0.147,0.136,0.214,0.208,0.208,0.117,0.075,��쓌,5.0,��
2022/07/16,13:20,0.146,0.138,0.214,0.206,0.209,0.116,0.075,��쓌,4.6,��
2022/07/16,13:30,0.146,0.138,0.214,0.206,0.213,0.114,0.075,��쓌,2.9,��
2022/07/16,13:40,0.144,0.137,0.212,0.206,0.213,0.114,0.075,��쓌,4.8,��
2022/07/16,13:50,0.144,0.137,0.213,0.205,0.212,0.116,0.075,��쓌,5.0,��
2022/07/16,14:00,0.145,0.137,0.214,0.205,0.211,0.116,0.075,��쓌,4.7,��
2022/07/16,14:10,0.144,0.135,0.211,0.205,0.211,0.116,0.075,��쓌,5.0,��
2022/07/16,14:20,0.144,0.136,0.212,0.206,0.210,0.117,0.075,��쓌,6.1,��
2022/07/16,14:30,0.144,0.136,0.213,0.205,0.209,0.114,0.074,��쓌,5.2,��
2022/07/16,14:40,0.145,0.135,0.213,0.206,0.211,0.115,0.074,��쓌,5.4,��
2022/07/16,14:50,0.144,0.135,0.213,0.206,0.210,0.116,0.075,��쓌,4.9,��
2022/07/16,15:00,0.147,0.138,0.214,0.208,0.210,0.115,0.075,��쓌,5.5,��
2022/07/16,15:10,0.148,0.137,0.217,0.210,0.209,0.116,0.074,��쓌,6.2,��
2022/07/16,15:20,0.147,0.138,0.216,0.209,0.209,0.116,0.075,��쓌,5.6,��
2022/07/16,15:30,0.146,0.136,0.214,0.207,0.213,0.115,0.074,��,5.9,��
2022/07/16,15:40,0.144,0.136,0.214,0.207,0.213,0.116,0.075,��,6.1,��
2022/07/16,15:50,0.147,0.138,0.215,0.209,0.210,0.116,0.075,��,5.5,��
2022/07/16,16:00,0.148,0.137,0.215,0.209,0.209,0.116,0.075,��,5.3,��
2022/07/16,16:10,0.146,0.137,0.216,0.208,0.213,0.115,0.074,��쓌,4.7,��
2022/07/16,16:20,0.145,0.136,0.214,0.206,0.213,0.116,0.075,��쓌,7.0,��
2022/07/16,16:30,0.147,0.138,0.214,0.207,0.211,0.116,0.076,��쓌,7.8,��
2022/07/16,16:40,0.147,0.137,0.217,0.209,0.210,0.116,0.075,��,7.7,��
2022/07/16,16:50,0.146,0.136,0.216,0.208,0.213,0.116,0.075,��,7.2,��
2022/07/16,17:00,0.146,0.137,0.214,0.207,0.213,0.116,0.076,��,6.2,��
2022/07/16,17:10,0.148,0.137,0.216,0.209,0.209,0.116,0.075,��,5.2,��
2022/07/16,17:20,0.148,0.137,0.215,0.210,0.210,0.116,0.074,��쓌,5.5,��
2022/07/16,17:30,0.145,0.136,0.214,0.207,0.212,0.116,0.075,��쓌,7.3,��
2022/07/16,17:40,0.146,0.138,0.213,0.208,0.212,0.116,0.075,��쓌,6.9,��
2022/07/16,17:50,0.147,0.137,0.216,0.209,0.210,0.116,0.074,��,7.6,��
2022/07/16,18:00,0.145,0.136,0.216,0.207,0.212,0.115,0.075,��,6.1,��
2022/07/16,18:10,0.146,0.138,0.214,0.207,0.213,0.116,0.075,��쓌,5.7,��
2022/07/16,18:20,0.148,0.137,0.216,0.210,0.211,0.116,0.075,��,6.7,��
2022/07/16,18:30,0.147,0.136,0.215,0.208,0.211,0.116,0.075,��,5.7,��
2022/07/16,18:40,0.145,0.137,0.215,0.206,0.213,0.115,0.076,��쓌,5.4,��
2022/07/16,18:50,0.148,0.137,0.215,0.210,0.211,0.116,0.075,��쓌,5.7,��
2022/07/16,19:00,0.147,0.137,0.217,0.209,0.210,0.116,0.075,��,5.9,��
2022/07/16,19:10,0.146,0.136,0.214,0.207,0.213,0.116,0.076,��,5.7,��
2022/07/16,19:20,0.148,0.138,0.214,0.210,0.210,0.116,0.075,��,5.1,��
2022/07/16,19:30,0.147,0.137,0.216,0.210,0.210,0.117,0.075,��,5.0,��
2022/07/16,19:40,0.146,0.137,0.214,0.207,0.213,0.116,0.076,��,5.0,��
2022/07/16,19:50,0.147,0.137,0.216,0.209,0.211,0.116,0.075,��,5.4,��
2022/07/16,20:00,0.148,0.137,0.215,0.209,0.211,0.116,0.075,��,5.1,��
2022/07/16,20:10,0.146,0.138,0.215,0.207,0.213,0.116,0.075,��,5.5,��
2022/07/16,20:20,0.146,0.137,0.216,0.210,0.211,0.116,0.075,��,4.9,��
2022/07/16,20:30,0.147,0.136,0.215,0.208,0.211,0.117,0.075,��,3.8,��
2022/07/16,20:40,0.146,0.138,0.215,0.207,0.213,0.116,0.076,��,4.0,��
2022/07/16,20:50,0.147,0.137,0.216,0.209,0.211,0.116,0.075,��,4.7,��
2022/07/16,21:00,0.147,0.138,0.214,0.208,0.210,0.115,0.075,��,5.4,��
2022/07/16,21:10,0.146,0.137,0.216,0.207,0.212,0.115,0.076,��,5.7,��
2022/07/16,21:20,0.147,0.136,0.217,0.209,0.211,0.116,0.075,��쓌,3.8,��
2022/07/16,21:30,0.147,0.138,0.214,0.208,0.210,0.116,0.075,��,3.5,��
2022/07/16,21:40,0.145,0.137,0.216,0.207,0.212,0.115,0.076,��,2.9,�L
2022/07/16,21:50,0.146,0.136,0.215,0.210,0.211,0.116,0.075,��,4.1,��
2022/07/16,22:00,0.147,0.137,0.214,0.209,0.210,0.116,0.074,��,5.3,��
2022/07/16,22:10,0.146,0.138,0.216,0.206,0.212,0.116,0.076,��,5.3,�L
2022/07/16,22:20,0.146,0.136,0.216,0.210,0.211,0.115,0.075,��,5.6,�L
2022/07/16,22:30,0.148,0.138,0.214,0.206,0.208,0.117,0.075,��,4.3,��
2022/07/16,22:40,0.146,0.137,0.215,0.206,0.213,0.115,0.076,��,5.8,��
2022/07/16,22:50,0.146,0.137,0.215,0.210,0.211,0.116,0.075,��,6.1,��
2022/07/16,23:00,0.147,0.138,0.213,0.208,0.210,0.117,0.075,��,5.6,��
2022/07/16,23:10,0.147,0.137,0.216,0.206,0.213,0.115,0.075,��,6.5,��
2022/07/16,23:20,0.146,0.136,0.215,0.209,0.212,0.115,0.075,��,5.3,��
2022/07/16,23:30,0.147,0.138,0.214,0.209,0.210,0.116,0.075,��,4.1,��
2022/07/16,23:40,0.147,0.137,0.215,0.207,0.212,0.115,0.075,��쓌,5.0,��
2022/07/16,23:50,0.145,0.136,0.215,0.209,0.212,0.115,0.075,��,5.0,��
